Regional Weather Roundup
Issued by NWS

Home | Current Version | Previous Version | Graphics & Text | Print | Product List | Glossary On
Versions: 1 2 3 4 5 6 7 8 9 10 11 12 13 14 15 16 17 18 19 20 21 22 23 24 25 26 27 28 29 30 31 32 33 34 35 36 37 38 39 40 41 42 43 44 45 46 47 48 49 50
000
ASUS43 KIND 310709
RWRIN

WEATHER ROUNDUP FOR INDIANA
NATIONAL WEATHER SERVICE INDIANAPOLIS IN
300 AM EDT WED AUG 31 2016

NOTE: "FAIR" INDICATES FEW OR NO CLOUDS BELOW 12,000 FEET WITH NO
SIGNIFICANT WEATHER AND/OR OBSTRUCTIONS TO VISIBILITY.

* - STATION DOES NOT REPORT WEATHER SUCH AS PRECIPITATION OR FOG.

+ - STATION NOT QUALITY CONTROLLED BY THE NATIONAL WEATHER SERVICE.
    USE DATA WITH CAUTION...ESPECIALLY DEWPOINT AND RELATIVE
    HUMIDITY OBSERVATIONS.

INZ001>003-010>013-019-020-310800-
NORTHWEST INDIANA

CITY           SKY/WX    TMP DP  RH WIND       PRES   REMARKS
GARY /AIRPORT/ CLOUDY    71  71 100 CALM      30.05S
KNOX *+        CLOUDY    70  61  73 CALM      30.03F
LA PORTE +     CLOUDY   N/A N/A N/A NW6       30.04F FOG
MICHIGAN CITY+ CLOUDY    70  70 100 MISG      30.04S FOG
MONTICELLO +   CLOUDY    71  66  86 CALM      30.03F
RENSSELAER +   CLOUDY    72  70  94 CALM      30.03F FOG
VALPARAISO     CLOUDY    72  70  93 NW3       30.04F

$$

LMZ046-743>745-310800-
SOUTHERN LAKE MICHIGAN

STATION/POSITION TIME  TEMP    WIND        PRES    WAVE
                       AIR SEA DIR/SP/G            HT
                 (UTC) (F)     (DEG/KT/KT) (MB)    (FT)
BURNS HARBOR     0602   74     330/  3/  6 1017.6F
MICHIGAN CITY    0600   73     320/  8/  8   N/A
5NW MICH CITY    0700   74 71  330/  6/  6   N/A     1

$$

INZ004-005-014>016-021>024-310800-
NORTH CENTRAL INDIANA

CITY           SKY/WX    TMP DP  RH WIND       PRES   REMARKS
GOSHEN         CLOUDY    71  68  90 SW5       30.03F
LOGANSPORT +   PTCLDY    68  68 100 S3        30.04F FOG
PERU/GRISSOM   CLOUDY    70  70 100 SW3       30.03F
ROCHESTER +    LGT RAIN  72  72 100 SW3       30.04F
SOUTH BEND     PTCLDY    70  69  97 CALM      30.03F
WARSAW +       CLOUDY    70  70 100 SW3       30.03F

$$

INZ006>009-017-018-025>027-310800-
NORTHEAST INDIANA

CITY           SKY/WX    TMP DP  RH WIND       PRES   REMARKS
ANGOLA *+      CLEAR     70  61  73 W3        30.02F
AUBURN +       PTCLDY    70  66  88 CALM      30.03F FOG
FORT WAYNE     CLOUDY    69  67  93 CALM      30.03F FOG
HUNTINGTON +   CLOUDY    68  67  96 W3        30.03S FOG

$$

INZ028-029-035-036-043>045-051>053-310800-
WEST CENTRAL INDIANA

CITY           SKY/WX    TMP DP  RH WIND       PRES   REMARKS
CRAWFORDSVL +  MOCLDY    68  68 100 CALM      30.05F FOG
GREENCASTLE +  CLOUDY    68  68 100 CALM      30.06S FOG
LAFAYETTE      CLOUDY    70  70 100 CALM      30.03F
TERRE HAUTE    CLOUDY    71  69  93 CALM      30.04F

$$

INZ030>032-037>040-046>048-054>057-064-065-310800-
CENTRAL INDIANA

CITY           SKY/WX    TMP DP  RH WIND       PRES   REMARKS
INDIANAPOLIS   CLOUDY    71  70  96 CALM      30.03F
-EAGLE CREEK   PTCLDY    72  70  93 CALM      30.03F
KOKOMO *+      CLOUDY    68  66  94 NW6       30.04F
MARION +       FOG       66  66 100 CALM      30.04F VSB 1/2
MT COMFORT *+  CLOUDY    68  68 100 CALM      30.04F
SHELBYVILLE    CLOUDY    71  68  90 CALM      30.03F FOG
ZIONSVILLE +   CLOUDY    69  69  99 CALM      30.06S FOG

$$

INZ033-034-041-042-049-050-058-059-310800-
EAST CENTRAL INDIANA

CITY           SKY/WX    TMP DP  RH WIND       PRES   REMARKS
MUNCIE         CLOUDY    70  68  93 SW3       30.04S

$$

INZ060-061-067>069-081>083-085>088-310800-
SOUTHWEST INDIANA

CITY           SKY/WX    TMP DP  RH WIND       PRES   REMARKS
EVANSVILLE     CLEAR     76  71  85 N3        30.04F
HUNTINGBURG *+ CLEAR     73  70  88 CALM      30.04S
WASHINGTON +   CLOUDY    71  71 100 MISG      30.03F FOG

$$

INZ062-063-066-070>080-084-089>092-310800-
SOUTH CENTRAL AND SOUTHEAST INDIANA

CITY           SKY/WX    TMP DP  RH WIND       PRES   REMARKS
BLOOMINGTON    PTCLDY    70  67  90 CALM      30.04F
MADISON *+     MOCLDY    72  68  88 CALM      30.07S

$$




USA.gov is the U.S. government's official web portal to all federal, state and local government web resources and services.